This is the latest recevied weather packets stored in our database for station/object JF7BTK-10. If no packets are shown the sender has not sent any weather packets the latest 10 day(s).
| Time | Temp. | Humidity | Pressure | Rain* | Wind** | Luminosity | Snow |
|---|---|---|---|---|---|---|---|
| 1777681733 | 12.78° C | 85% | 991.9 hPa | 0 mm | - | - | - |
| 1777680832 | 12.22° C | 84% | 991.9 hPa | 0 mm | - | - | - |
| 1777679931 | 12.78° C | 85% | 991.6 hPa | 0 mm | - | - | - |
| 1777679031 | 12.78° C | 88% | 991.5 hPa | 0 mm | - | - | - |
| 1777678131 | 12.78° C | 89% | 991.1 hPa | 0 mm | - | - | - |
| 1777677233 | 12.22° C | 92% | 990.8 hPa | 0 mm | - | - | - |
| 1777676333 | 12.22° C | 92% | 990.4 hPa | 0 mm | - | - | - |
| 1777675433 | 12.22° C | 91% | 989.9 hPa | 0 mm | - | - | - |
| 1777675352 | 12.22° C | 91% | 989.9 hPa | 0 mm | - | - | - |
| 1777674753 | 12.22° C | 90% | 989.7 hPa | 0 mm | - | - | - |
| 1777674534 | 12.22° C | 90% | 989.4 hPa | 0 mm | - | - | - |
| 1777674453 | 12.22° C | 90% | 989.5 hPa | 0 mm | - | - | - |
| 1777674154 | 12.78° C | 85% | 989.2 hPa | 0 mm | - | - | - |
| 1777673632 | 12.78° C | 83% | 988.6 hPa | 0 mm | - | - | - |
| 1777673553 | 13.33° C | 83% | 988.6 hPa | 0 mm | - | - | - |
| 1777673252 | 13.33° C | 82% | 988.5 hPa | 0 mm | - | - | - |
| 1777672952 | 12.78° C | 81% | 987.9 hPa | 0 mm | - | - | - |
| 1777672732 | 12.78° C | 81% | 987.8 hPa | 0 mm | - | - | - |
| 1777672052 | 12.78° C | 82% | 987.5 hPa | 0 mm | - | - | - |
| 1777671832 | 12.78° C | 83% | 987.5 hPa | 0 mm | - | - | - |
| 1777671453 | 12.78° C | 84% | 987 hPa | 0 mm | - | - | - |
| 1777670932 | 12.78° C | 86% | 986.5 hPa | 0 mm | - | - | - |
| 1777670553 | 12.78° C | 88% | 986.6 hPa | 0 mm | - | - | - |
| 1777670253 | 12.78° C | 90% | 986.5 hPa | 0 mm | - | - | - |
| 1777670033 | 12.22° C | 91% | 986.3 hPa | 0 mm | - | - | - |
* Rain latest hour (hover to see other rain measurements)
** Current wind speed in m/s (hover to see current wind gust speed)